[Iaude] MPEC K120: 2024 KV [a=1.91,e=0.44,i=27.3,H=21.3,PHA]

mpec at cfa.harvard.edu mpec at cfa.harvard.edu
Wed May 29 06:59:28 EDT 2024


M.P.E.C. 2024-K120                                 Issued 2024 May 29, 10:57 UT

     The Minor Planet Electronic Circulars contain information on unusual
         minor planets, routine data on comets and natural satellites,
         and occasional editorial announcements.  They are published
    on behalf of Division F of the International Astronomical Union by the
          Minor Planet Center, Smithsonian Astrophysical Observatory,
                          Cambridge, MA 02138, U.S.A.
			  
             Prepared using the Tamkin Foundation Computer Network

                              MPC at CFA.HARVARD.EDU
            URL https://www.minorplanetcenter.net/    ISSN 1523-6714

                                    2024 KV                                     


Observations:
     K24K00V*1C2024 05 27.36501917 46 06.920+58 53 31.09         20.94GVEK120G96
     K24K00V 1C2024 05 27.37024517 46 07.187+58 53 33.61         21.40GVEK120G96
     K24K00V 1C2024 05 27.37548017 46 07.504+58 53 35.81         21.12GVEK120G96
     K24K00V 1C2024 05 27.38070717 46 07.932+58 53 37.39         21.95GVEK120G96
     K24K00V KC2024 05 27.39793217 46 09.008+58 53 44.95         21.81GVEK120I52
     K24K00V KC2024 05 27.40561117 46 09.516+58 53 47.47         21.87GVEK120I52
     K24K00V KC2024 05 27.41500017 46 10.142+58 53 51.68         21.66GVEK120I52
     K24K00V KC2024 05 27.42511017 46 10.808+58 53 55.07         21.79GVEK120I52
     K24K00V  C2024 05 27.45658117 46 12.783+58 54 06.39         21.5 GVEK120H01
     K24K00V  C2024 05 27.46146317 46 13.104+58 54 08.32         21.5 GVEK120H01
     K24K00V 7C2024 05 28.06089717 47 01.581+58 58 17.52               VEK120Z84
     K24K00V 7C2024 05 28.07750017 47 02.709+58 58 24.18               VEK120Z84
     K24K00V KC2024 05 28.27246617 47 19.619+58 59 41.03         21.62GVEK120I52
     K24K00V KC2024 05 28.28332917 47 20.368+58 59 46.18         20.96GVEK120I52
     K24K00V KC2024 05 28.29590517 47 21.127+58 59 51.11         21.49GVEK120I52
     K24K00V KC2024 05 28.30709117 47 21.872+58 59 56.44         21.35GVEK120I52
     K24K00V DC2024 05 28.43943 17 47 30.56 +59 00 48.2          22.0 GVEK120695
     K24K00V DC2024 05 28.44676 17 47 31.05 +59 00 50.7          22.1 GVEK120695
     K24K00V KC2024 05 29.18844617 48 32.77 +59 05 29.1          21.8 GVEK120H21
     K24K00V KC2024 05 29.19684017 48 33.39 +59 05 32.0          22.1 GVEK120H21
     K24K00V KC2024 05 29.19963817 48 33.53 +59 05 33.7          21.9 GVEK120H21
     K24K00V KC2024 05 29.29127517 48 40.655+59 06 11.12         21.82GVEK120V06
     K24K00V KC2024 05 29.29310317 48 40.777+59 06 12.02         21.77GVEK120V06
     K24K00V KC2024 05 29.29699117 48 41.054+59 06 13.57         21.43GVEK120V06
     K24K00V  C2024 05 29.32436217 48 42.702+59 06 24.00         21.5 GVEK120H01
     K24K00V  C2024 05 29.33263917 48 43.258+59 06 27.19         21.4 GVEK120H01
     K24K00V  C2024 05 29.34551417 48 44.110+59 06 32.05         21.1 GVEK120H01
     K24K00V DC2024 05 29.34994 17 48 44.58 +59 06 34.2          21.7 GVEK120695
     K24K00V DC2024 05 29.35726 17 48 45.06 +59 06 36.9          22.0 GVEK120695
     K24K00V  C2024 05 29.35805817 48 44.927+59 06 36.71         21.3 GVEK120H01
     K24K00V DC2024 05 29.36459 17 48 45.55 +59 06 39.6          22.0 GVEK120695

Observer details:
695 Kitt Peak.  Observer A. F. Tubbiolo.  2.3-m f/9 reflector + CCD.
G96 Mt. Lemmon Survey.  Observer K. W. Wierzchos.  Measurers T. Beuden, V. F.
    Carvajal, D. Fay, J. B. Fazekas, D. C. Fuls, A. R. Gibbs, A. D. Grauer, H.
    Groeller, J. K. Hogan, R. A. Kowalski, S. M. Larson, G. J. Leonard, D.
    Rankin, R. L. Seaman, F. C. Shelly, K. W. Wierzchos.  1.5-m reflector +
    10K CCD.
H01 Magdalena Ridge Observatory, Socorro.  Observers W. H. Ryan, E. V. Ryan.
    Measurer W. H. Ryan.  2.4-m f/8.9 Ritchey-Chretien + CCD.
H21 Astronomical Research Observatory, Westfield.  Observer R. Holmes.
    Measurers T. Linder, R. Holmes, L. Horn.  0.76-m f/3.0 astrograph + CCD.
I52 Steward Observatory, Mt. Lemmon Station.  Observer R. A. Kowalski.
    Measurers T. Beuden, V. F. Carvajal, D. Fay, J. B. Fazekas, D. C. Fuls, A.
    R. Gibbs, A. D. Grauer, H. Groeller, J. K. Hogan, R. A. Kowalski, S. M.
    Larson, G. J. Leonard, D. Rankin, R. L. Seaman, F. C. Shelly, K. W.
    Wierzchos.  1.0-m prime focus + CCD.
V06 Catalina Sky Survey-Kuiper.  Observer V. F. Carvajal.  Measurers T.
    Beuden, V. F. Carvajal, D. Fay, J. B. Fazekas, D. C. Fuls, A. R. Gibbs, A.
    D. Grauer, H. Groeller, J. K. Hogan, R. A. Kowalski, S. M. Larson, G. J.
    Leonard, D. Rankin, R. L. Seaman, F. C. Shelly, K. W. Wierzchos.  1.55-m
    reflector + 1K CCD.
Z84 Calar Alto-Schmidt.  Observers F. Ocana, R. Kresken, M. Micheli, L.
    Conversi.  Measurers F. Ocana, M. Micheli.  0.8-m f/3 Schmidt + CCD.

Orbital elements:
2024 KV                                             PHA, Earth MOID = 0.0495 AU
Epoch 2024 Mar. 31.0 TT = JDT 2460400.5                 Veres                   
M 323.31025              (2000.0)            P               Q                  
n   0.37460942     Peri.  168.87913     +0.28078705     +0.86737635             
a   1.9058275      Node   116.28354     -0.91198819     +0.37451555             
e   0.4438730      Incl.   27.27425     -0.29905880     -0.32771385             
P   2.63           H   21.30          G   0.15           U   9                  
Residuals in seconds of arc
240527 G96  0.0   0.1+    240528 Z84  0.2-  0.1+    240529 V06  0.1-  0.1+
240527 G96  0.5-  0.4+    240528 I52  0.2+  0.1-    240529 V06  0.1+  0.1+
240527 G96  0.7-  0.4+    240528 I52  0.3+  0.1+    240529 H01  0.1-  0.0
240527 G96  0.1+  0.2-    240528 I52  0.2-  0.5-    240529 H01  0.0   0.0
240527 I52  0.2-  0.3+    240528 I52  0.2-  0.0     240529 H01  0.0   0.0
240527 I52  0.1-  0.3-    240528 695  0.1+  0.0     240529 695  0.0   0.0
240527 I52  0.1+  0.2+    240528 695  0.1+  0.1-    240529 695  0.0   0.1-
240527 I52  0.2+  0.4-    240529 H21  0.1+  0.0     240529 H01  0.1-  0.1+
240527 H01  0.2+  0.0     240529 H21 (0.4+  0.7-)   240529 695  0.0   0.1-
240527 H01  0.2+  0.1+    240529 H21  0.0   0.2-
240528 Z84  0.5-  0.1+    240529 V06  0.1-  0.0

Ephemeris:
2024 KV                  a,e,i = 1.91, 0.44, 27                  q = 1.0599
Date    TT    R. A. (2000) Decl.     Delta      r    Elong.  Phase     V
2024 04 29    17 09 55.6 +52 33 26   0.5952  1.2897   104.2    49.2    22.6
...
2024 05 14    17 29 29.8 +56 37 23   0.5092  1.2102   100.3    55.3    22.3
...
2024 05 22    17 39 18.7 +58 08 34   0.4591  1.1723    98.6    58.6    22.1
...
2024 05 28    17 46 56.7 +58 57 45   0.4190  1.1467    97.6    61.2    21.9
2024 05 29    17 48 16.2 +59 04 15   0.4121  1.1427    97.5    61.6    21.9
2024 05 30    17 49 36.9 +59 10 14   0.4051  1.1387    97.3    62.0    21.8
...
2024 06 05    17 58 15.3 +59 34 38   0.3619  1.1168    96.8    64.4    21.6
...
2024 06 13    18 12 21.3 +59 29 33   0.3007  1.0925    96.8    67.4    21.3
...
2024 06 28    18 57 36.5 +55 34 36   0.1777  1.0645   100.9    69.7    20.1

M. P. C. Staff               (C) Copyright 2024 MPC           M.P.E.C. 2024-K120





More information about the Iaude mailing list